Powrót do katalogu

COSMOS 2180

AktywnyMilitariaPO
NORAD 21875·PAYLOAD·🇷🇺 Russia

Wystrzelony Feb 17, 1992 z Plesetsk Cosmodrome

Loading…

Następne Przeloty (najbliższe 24 godziny)

TLE

ŚwieżeSource: Space-Track

Epoka: Sep 14, 2026, 03:05 UTC

1 21875U 92008A   26257.12877259  .00000064  00000-0  51425-4 0  9996
2 21875  82.9300 155.6091 0038939  83.7921  78.9095 13.73969469733037

Śledź COSMOS 2180 w czasie rzeczywistym z AllMySat

Download on the App Store